Dewpoint
30 29 31 29 29 31 33 33 32 28 31 36 41 46 49 54 56 58 60 56 51 52 52 53 55 58 59 59 59 60 60 60 60 60 60 60 60 60
28 28 29 27 27 31 31 32 34 31 29 34 36 41 44 49 53 57 59 55 52 50 51 51 52 54 56 57 58 58 58 59 59 59 60 60 60 60
26 28 27 26 27 29 31 31 30 31 28 31 37 40 44 48 52 56 56 58 58 49 49 49 49 49 51 53 55 56 57 57 57 58 58 59 60 60
25 26 25 25 26 27 29 29 30 31 31 31 35 38 38 36 38 44 44 46 48 47 49 51 48 48 49 51 51 52 54 55 55 56 56 57 58 59
22 24 24 24 25 26 27 29 30 30 31 31 31 32 31 31 34 35 37 40 44 46 45 47 47 48 48 49 49 50 51 52 53 52 53 53 55 56
20 21 22 23 25 26 26 27 29 29 30 29 28 28 28 29 31 30 32 35 38 37 39 42 46 47 47 47 48 48 49 49 49 50 50 49 50 52
20 20 22 24 24 25 27 26 27 27 26 27 26 26 26 26 27 29 30 31 36 32 33 39 43 46 51 45 44 46 47 48 48 48 49 49 48 50
19 19 20 22 22 22 24 25 26 27 26 26 25 25 26 27 27 28 28 28 31 33 30 35 36 37 43 43 40 41 44 46 47 47 48 47 47 48
16 17 20 22 22 19 20 21 22 25 26 26 25 25 26 28 28 26 27 28 30 28 29 30 32 30 36 42 38 39 40 40 41 44 45 46 46 47
16 16 19 19 21 19 18 17 17 20 24 25 25 26 27 27 28 28 29 27 31 29 29 26 29 27 30 38 38 37 39 39 39 39 42 43 42 43
13 15 20 19 21 22 17 16 15 16 21 22 23 24 24 25 25 26 25 24 24 27 27 28 27 27 29 34 34 35 35 37 37 38 37 37 41 42
19 20 21 20 20 20 19 17 14 15 16 16 17 19 21 22 24 24 24 24 23 23 25 26 26 26 25 31 30 33 33 34 34 35 36 37 37 42
18 19 19 20 19 19 19 16 16 16 16 16 16 16 17 19 21 21 23 22 23 22 25 26 26 25 26 26 29 31 32 32 31 32 33 35 36 37
16 19 19 18 18 18 17 17 16 14 15 14 13 13 14 16 18 19 21 22 24 23 25 24 24 22 22 23 25 27 29 32 29 30 31 33 33 34
18 17 17 17 17 16 16 16 14 13 12 12 11 12 13 16 18 17 18 19 20 22 22 22 22 20 20 21 24 23 25 27 28 29 29 31 32 32
9 8 9 16 9 9 12 13 13 12 11 11 11 12 12 13 14 15 15 15 15 16 19 20 20 20 17 19 22 22 24 24 27 27 27 29 31 32
5 2 7 10 10 10 10 11 11 12 10 10 10 10 9 10 11 13 13 13 12 12 13 16 17 18 18 19 18 20 21 23 26 26 26 26 28 29
5 -2 0 -3 1 8 8 9 9 10 10 9 8 8 7 7 8 11 11 10 11 11 11 14 13 13 12 15 16 19 19 21 23 24 25 24 24 27
-0 -4 -5 -6 -5 2 3 4 6 7 3 6 6 6 5 5 6 8 9 8 9 9 10 11 10 11 8 7 13 17 17 19 20 21 24 24 24 26
-2 -3 -3 -3 -3 -3 -4 0 6 6 5 4 3 4 3 3 3 5 7 6 8 7 8 8 8 9 9 10 12 14 18 18 18 19 20 23 25 27
-2 -1 -4 -4 -4 -5 -7 -7 -6 -3 -2 -8 -1 1 1 1 1 3 6 4 6 6 5 5 8 11 12 12 8 10 13 17 18 19 22 24 24 24
-0 1 -0 -1 -4 -5 -7 -9 -6 -7 -2 -7 -8 -3 -0 -0 -1 1 4 4 4 5 3 6 8 8 8 8 8 9 10 12 17 19 20 21 22 23
-0 2 -0 -3 -2 -4 -2 -6 -7 -10 -6 -9 -8 -2 -5 -2 -1 1 3 4 4 2 2 4 6 5 5 7 7 8 7 10 13 12 15 20 24 28
Lifted_Index
16 16 16 17 17 17 16 15 13 11 9 9 8 8 7 6 4 2 1 1 1 1 2 2 2 0 -1 -1 -1 -1 -1 -0 0 1 1 1 2 2
16 15 15 16 16 16 16 15 14 11 10 9 9 8 7 5 4 3 2 1 1 2 2 2 2 2 1 -0 -1 -1 -1 -1 -0 0 1 1 1 2
14 13 13 14 15 15 15 15 14 12 11 10 9 8 6 5 4 3 2 1 1 1 2 2 3 3 3 2 0 -1 -1 -1 -1 -0 0 0 1 1
12 12 11 12 13 14 14 14 14 13 12 11 9 8 6 4 3 2 2 2 1 1 1 2 2 3 3 2 1 -0 -1 -1 -1 -1 -0 -0 0 0
13 12 11 11 12 13 14 14 14 14 14 12 10 8 7 5 3 2 2 2 2 2 2 2 2 3 3 3 2 1 0 -0 -0 -1 -1 -1 -0 -0
15 14 13 13 13 14 14 14 14 15 15 13 11 10 8 6 5 4 3 3 3 3 3 3 2 3 3 3 3 2 1 1 1 0 -0 -1 -0 -0
16 16 16 16 16 16 16 15 15 15 14 14 13 11 10 8 7 6 5 4 4 4 4 4 4 4 4 5 4 3 3 3 2 1 0 -1 -1 -0
16 17 17 18 19 19 18 17 16 16 16 15 14 13 13 12 11 9 7 6 6 7 6 5 5 5 5 6 5 4 4 4 3 2 1 -0 -1 -1
17 17 18 19 20 20 19 19 18 18 19 18 17 16 16 16 16 14 11 10 10 10 9 7 7 6 7 7 7 6 5 4 4 3 2 0 -0 -0
17 17 18 18 19 19 19 19 19 20 20 21 20 20 20 20 19 17 14 13 13 13 12 10 9 8 8 9 10 9 7 5 4 4 3 1 1 1
17 17 18 18 19 19 18 18 18 19 20 21 21 22 22 22 21 19 16 14 13 14 15 14 11 10 9 10 12 12 10 9 7 6 6 4 2 2
17 17 18 19 19 19 18 18 18 18 19 19 20 21 21 22 22 21 19 17 15 16 18 17 15 13 11 11 13 14 14 12 10 9 9 9 6 4
17 17 18 19 19 19 19 19 19 19 19 18 18 19 20 20 21 22 22 21 20 20 21 20 18 17 15 14 14 16 17 16 14 12 12 12 11 9
17 18 19 19 19 19 19 19 19 19 19 18 18 18 19 19 20 21 22 22 22 22 23 22 21 20 18 16 16 17 19 18 17 15 14 13 13 12
18 19 19 19 19 19 19 20 20 19 19 18 18 19 20 20 20 20 21 21 21 22 22 22 22 21 20 19 18 19 19 20 19 18 17 16 15 14
19 19 19 19 19 19 19 20 20 20 20 19 19 20 21 21 21 21 20 20 20 20 21 22 22 22 21 21 21 20 21 21 21 21 20 19 18 17
18 18 18 18 18 18 19 20 20 21 21 21 21 21 21 21 21 21 21 20 19 19 20 21 21 21 21 21 22 22 22 22 22 22 22 21 21 20
18 17 17 18 18 18 19 19 20 21 21 22 21 21 21 21 21 21 21 21 20 20 21 21 21 20 19 20 21 22 22 22 22 22 22 21 21 21
18 17 17 18 18 19 19 20 20 21 21 21 21 21 21 21 21 21 21 21 21 21 22 22 22 21 19 19 20 22 22 22 22 22 22 22 21 22
18 18 18 18 19 19 19 20 20 20 20 20 20 20 20 20 20 20 21 21 21 21 22 22 23 23 22 21 21 21 22 22 22 21 21 21 21 21
18 19 19 19 19 20 20 20 20 20 20 20 20 20 20 20 20 20 20 21 21 21 21 22 23 24 24 23 22 21 22 22 22 21 21 21 20 20
19 19 20 20 20 20 20 20 20 20 20 20 20 21 21 21 20 21 21 21 21 21 21 22 23 23 23 23 22 21 21 22 22 22 21 21 20 20
20 20 20 20 20 20 20 20 20 20 20 21 21 21 21 21 21 21 21 21 21 21 21 22 22 23 23 22 22 21 21 22 22 21 21 21 21 21